This is the latest recevied weather packets stored in our database for station/object GBTWP-2. If no packets are shown the sender has not sent any weather packets the latest 10 day(s).
| Time | Temp. | Humidity | Pressure | Rain* | Wind** | Luminosity | Snow |
|---|---|---|---|---|---|---|---|
| 1788441119 | 25° C | 82% | 1017.6 hPa | 0 mm | - | 191 W/m² | - |
| 1788440820 | 25° C | 83% | 1017.5 hPa | 0 mm | - | 167 W/m² | - |
| 1788440519 | 25.56° C | 82% | 1017.3 hPa | 0 mm | - | 161 W/m² | - |
| 1788440220 | 25° C | 83% | 1017.4 hPa | 0 mm | - | 159 W/m² | - |
| 1788439919 | 24.44° C | 85% | 1017.5 hPa | 0 mm | - | 161 W/m² | - |
| 1788439620 | 23.89° C | 85% | 1017.4 hPa | 0 mm | - | 134 W/m² | - |
| 1788439319 | 23.89° C | 87% | 1017.5 hPa | 0 mm | - | 114 W/m² | - |
| 1788439020 | 23.33° C | 88% | 1017.6 hPa | 0 mm | - | 116 W/m² | - |
| 1788438719 | 23.33° C | 88% | 1017.5 hPa | 0 mm | - | 95 W/m² | - |
| 1788438420 | 22.78° C | 90% | 1017.8 hPa | 0 mm | - | 65 W/m² | - |
| 1788438117 | 22.22° C | 91% | 1017.6 hPa | 0 mm | - | 56 W/m² | - |
| 1788437819 | 22.22° C | 93% | 1017.8 hPa | 0 mm | - | 51 W/m² | - |
| 1788437517 | 21.67° C | 94% | 1017.8 hPa | 0 mm | - | 48 W/m² | - |
| 1788437219 | 21.11° C | 95% | 1017.9 hPa | 0 mm | - | 35 W/m² | - |
| 1788436919 | 21.11° C | 95% | 1017.8 hPa | 0 mm | - | 32 W/m² | - |
| 1788436620 | 21.11° C | 95% | 1017.8 hPa | 0 mm | - | 28 W/m² | - |
| 1788436319 | 21.11° C | 95% | 1017.7 hPa | 0 mm | - | 31 W/m² | - |
| 1788436019 | 21.11° C | 95% | 1017.6 hPa | 0 mm | - | 25 W/m² | - |
| 1788435719 | 20.56° C | 95% | 1017.6 hPa | 0 mm | - | 22 W/m² | - |
| 1788435420 | 20.56° C | 95% | 1017.4 hPa | 0 mm | - | 18 W/m² | - |
| 1788435116 | 20.56° C | 95% | 1017.6 hPa | 0 mm | - | 16 W/m² | - |
| 1788434820 | 20.56° C | 95% | 1017.3 hPa | 0 mm | - | 13 W/m² | - |
| 1788434519 | 20.56° C | 95% | 1017.5 hPa | 0 mm | - | 11 W/m² | - |
| 1788434219 | 20.56° C | 95% | 1017.5 hPa | 0 mm | - | 8 W/m² | - |
| 1788433919 | 20.56° C | 95% | 1017.4 hPa | 0 mm | - | 6 W/m² | - |
* Rain latest hour (hover to see other rain measurements)
** Current wind speed in m/s (hover to see current wind gust speed)